Weather History for San Diego, CA

Change the Weather History Date:

Saturday, November 24, 2012

  Actual Average Record
Temperature  
Mean Temperature 61 °F 59 °F  
Max Temperature 71 °F 67 °F 87 °F (1932)
Min Temperature 51 °F 51 °F 38 °F (1931)
Degree Days  
Heating Degree Days 4 6  
Month to date heating degree days 71 87  
Since 1 July heating degree days 75 108  
Cooling Degree Days 0 0  
Month to date cooling degree days 16 11  
Year to date cooling degree days 899 718  
Growing Degree Days 11 (Base 50)    
Moisture  
Dew Point 52 °F    
Average Humidity 69    
Maximum Humidity 100    
Minimum Humidity 37    
Precipitation  
Precipitation 0.00 in 0.04 in 0.62 in (1984)
Month to date precipitation 0.18 0.76  
Year to date precipitation 4.34 8.56  
Since 1 July precipitation 0.88 1.53  
Snow  
Snow 0.00 in - - ()
Month to date snowfall 0.0  
Year to date snowfall 0.0  
Since 1 July snowfall 0.0  
Snow Depth 0.00 in    
Sea Level Pressure  
Sea Level Pressure 30.03 in    
Wind  
Wind Speed 5 mph (WNW)    
Max Wind Speed 14 mph    
Max Gust Speed 18 mph    
Visibility 5 miles    
Events Fog    
T = Trace of Precipitation, MM = Missing Value Source: NWS Daily Summary

Daily Weather History Graph

Daily Weather History Graph

Search for Another Location

Airport:

Trip Planner

Search our weather history database for the weather conditions in past years. The results will help you decide how hot, cold, wet, or windy it might be!

Date:

Astronomy

Nov. 24, 2012 Rise Set
Actual Time 6:27 AM PST 4:43 PM PST
Civil Twilight 6:00 AM PST 5:10 PM PST
Nautical Twilight 5:30 AM PST 5:40 PM PST
Astronomical Twilight 5:01 AM PST 6:09 PM PST
Moon 2:22 PM PST (11/24) 2:57 AM PST (11/24)
Length of Visible Light 11h 09m
Length of Day
10h 16m
Waxing Gibbous, 88% of the Moon is Illuminated
Nov 24
Waxing Gibbous
Nov 28
Full
Dec 6
Last Quarter
Dec 13
New
Dec 19
First Quarter

Hourly Weather History & Observations

Time (PST) Temp. Dew Point Humidity Pressure Visibility Wind Dir Wind Speed Gust Speed Precip Events Conditions
12:51 AM 53.1 °F 53.1 °F 100% 30.09 in 0.5 mi NNW 5.8 mph - N/A Fog Fog
1:02 AM 53.6 °F 51.8 °F 94% 30.09 in 0.8 mi NNW 5.8 mph - N/A   Overcast
1:16 AM 53.6 °F 51.8 °F 94% 30.09 in 0.8 mi NNW 5.8 mph - N/A   Overcast
1:24 AM 53.6 °F 51.8 °F 94% 30.09 in 1.5 mi Calm Calm - N/A   Overcast
1:28 AM 53.6 °F 51.8 °F 94% 30.09 in 2.0 mi Calm Calm - N/A   Overcast
1:47 AM 53.6 °F 51.8 °F 94% 30.09 in 3.0 mi Calm Calm - N/A   Scattered Clouds
1:51 AM 53.1 °F 51.1 °F 93% 30.09 in 3.0 mi Calm Calm - N/A   Scattered Clouds
2:51 AM 53.1 °F 50.0 °F 89% 30.07 in 7.0 mi Calm Calm - N/A   Partly Cloudy
3:51 AM 53.1 °F 48.9 °F 86% 30.07 in 8.0 mi Calm Calm - N/A   Partly Cloudy
4:51 AM 51.1 °F 48.9 °F 92% 30.07 in 0.5 mi WNW 4.6 mph - N/A Fog Fog
4:54 AM 51.8 °F 50.0 °F 94% 30.07 in 0.2 mi NW 3.5 mph - N/A Fog Fog
5:23 AM 51.8 °F 50.0 °F 94% 30.07 in 0.5 mi NW 3.5 mph - N/A Fog Fog
5:26 AM 51.8 °F 50.0 °F 94% 30.07 in 0.5 mi NNW 3.5 mph - N/A Fog Fog
5:33 AM 51.8 °F 50.0 °F 94% 30.07 in 6.0 mi NNW 3.5 mph - N/A   Partly Cloudy
5:40 AM 51.8 °F 50.0 °F 94% 30.07 in 6.0 mi Calm Calm - N/A   Partly Cloudy
5:47 AM 51.8 °F 48.2 °F 88% 30.07 in 7.0 mi Calm Calm - N/A   Scattered Clouds
5:51 AM 51.1 °F 48.9 °F 92% 30.07 in 7.0 mi NW 3.5 mph - N/A   Partly Cloudy
6:51 AM 52.0 °F 48.9 °F 89% 30.07 in 7.0 mi Calm Calm - N/A   Partly Cloudy
7:51 AM 54.0 °F 48.9 °F 83% 30.07 in 7.0 mi Calm Calm - N/A Fog Clear
8:51 AM 59.0 °F 50.0 °F 72% 30.06 in 9.0 mi WNW 4.6 mph - N/A   Clear
9:51 AM 64.0 °F 52.0 °F 65% 30.05 in 8.0 mi WNW 5.8 mph - N/A   Clear
10:51 AM 68.0 °F 43.0 °F 40% 30.03 in 10.0 mi NW 5.8 mph - N/A   Clear
11:51 AM 69.1 °F 43.0 °F 39% 29.99 in 10.0 mi WNW 8.1 mph - N/A   Clear
12:51 PM 68.0 °F 53.1 °F 59% 29.96 in 10.0 mi WNW 8.1 mph - N/A Fog Clear
1:51 PM 69.1 °F 52.0 °F 54% 29.95 in 10.0 mi WNW 13.8 mph - N/A Fog Clear
1:56 PM 68.0 °F 53.6 °F 60% 29.95 in 10.0 mi NW 10.4 mph 18.4 mph N/A Fog Partly Cloudy
2:51 PM 64.0 °F 57.0 °F 78% 29.95 in 7.0 mi NW 9.2 mph - N/A   Partly Cloudy
3:51 PM 64.0 °F 57.9 °F 80% 29.96 in 5.0 mi WNW 6.9 mph - N/A   Haze
4:39 PM 62.6 °F 57.2 °F 82% 29.97 in 3.0 mi SW 6.9 mph - N/A   Mostly Cloudy
4:51 PM 62.1 °F 57.0 °F 84% 29.97 in 4.0 mi SW 6.9 mph - N/A   Haze
5:01 PM 62.6 °F 57.2 °F 82% 29.97 in 4.0 mi SW 6.9 mph - N/A   Mostly Cloudy
5:51 PM 61.0 °F 55.9 °F 83% 29.98 in 7.0 mi South 4.6 mph - N/A   Mostly Cloudy
6:51 PM 60.1 °F 55.9 °F 86% 29.98 in 7.0 mi South 3.5 mph - N/A   Mostly Cloudy
7:51 PM 60.1 °F 55.9 °F 86% 29.98 in 8.0 mi South 4.6 mph - N/A   Mostly Cloudy
8:51 PM 60.1 °F 55.9 °F 86% 29.99 in 7.0 mi South 4.6 mph - N/A   Mostly Cloudy
9:31 PM 60.8 °F 55.4 °F 82% 29.98 in 5.0 mi South 5.8 mph - N/A   Scattered Clouds
9:51 PM 59.0 °F 55.9 °F 90% 29.98 in 5.0 mi South 4.6 mph - N/A   Mostly Cloudy
10:51 PM 59.0 °F 55.9 °F 90% 29.98 in 4.0 mi SSW 4.6 mph - N/A   Mostly Cloudy
11:51 PM 59.0 °F 55.0 °F 87% 29.97 in 4.0 mi NE 3.5 mph - N/A   Overcast